| time (UTC) | temp F | wind direction | speed MPH | gust MPH | rain 1hr in | rain 24hr in | rain mn in | humidity % | barometer mb |
| 20260508162008 | 54 | 293 | 1.0 | 6.0 | 0.00 | 0.00 | 0.00 | 71 | 1022.2 |
| 20260508161530 | 54 | 217 | 2.0 | 6.0 | 0.00 | 0.00 | 0.00 | 71 | 1022.0 |
| 20260508161005 | 53 | 198 | 2.0 | 5.0 | 0.00 | 0.00 | 0.00 | 71 | 1022.0 |
| 20260508160504 | 53 | 298 | 2.0 | 5.0 | 0.00 | 0.00 | 0.00 | 71 | 1021.9 |
| 20260508160020 | 53 | 306 | 1.0 | 6.0 | 0.00 | 0.00 | 0.00 | 72 | 1021.9 |
| 20260508155506 | 53 | 259 | 2.0 | 6.0 | 0.00 | 0.00 | 0.00 | 72 | 1021.8 |
| 20260508155008 | 53 | 305 | 2.0 | 5.0 | 0.00 | 0.00 | 0.00 | 72 | 1022.0 |
| 20260508154518 | 53 | 245 | 1.0 | 5.0 | 0.00 | 0.00 | 0.00 | 73 | 1021.9 |
| 20260508154008 | 53 | 243 | 3.0 | 5.0 | 0.00 | 0.00 | 0.00 | 72 | 1021.8 |
| 20260508153507 | 52 | 228 | 2.0 | 4.0 | 0.00 | 0.00 | 0.00 | 72 | 1021.8 |
| 20260508153015 | 53 | 205 | 2.0 | 6.0 | 0.00 | 0.00 | 0.00 | 73 | 1021.9 |
| 20260508152508 | 53 | 226 | 1.0 | 6.0 | 0.00 | 0.00 | 0.00 | 73 | 1021.9 |
| 20260508152009 | 52 | 238 | 1.0 | 5.0 | 0.00 | 0.00 | 0.00 | 75 | 1021.9 |
| 20260508151516 | 52 | 218 | 2.0 | 5.0 | 0.00 | 0.00 | 0.00 | 74 | 1022.0 |
| 20260508151012 | 52 | 236 | 2.0 | 5.0 | 0.00 | 0.00 | 0.00 | 75 | 1022.0 |
| 20260508150508 | 52 | 239 | 2.0 | 5.0 | 0.00 | 0.00 | 0.00 | 75 | 1022.0 |
| 20260508150022 | 52 | 240 | 2.0 | 4.0 | 0.00 | 0.00 | 0.00 | 75 | 1022.1 |
| 20260508145509 | 51 | 290 | 1.0 | 4.0 | 0.00 | 0.00 | 0.00 | 75 | 1022.1 |
| 20260508145013 | 52 | 162 | 2.0 | 5.0 | 0.00 | 0.00 | 0.00 | 74 | 1022.2 |
| 20260508144505 | 52 | 325 | 2.0 | 6.0 | 0.00 | 0.00 | 0.00 | 75 | 1022.2 |
| 20260508144003 | 51 | 310 | 1.0 | 6.0 | 0.00 | 0.00 | 0.00 | 76 | 1022.2 |
| 20260508143504 | 51 | 288 | 2.0 | 6.0 | 0.00 | 0.00 | 0.00 | 76 | 1022.2 |
| 20260508143014 | 51 | 316 | 2.0 | 6.0 | 0.00 | 0.00 | 0.00 | 76 | 1022.2 |
| 20260508142505 | 51 | 238 | 2.0 | 6.0 | 0.00 | 0.00 | 0.00 | 76 | 1022.1 |
| 20260508142007 | 51 | 266 | 1.0 | 5.0 | 0.00 | 0.00 | 0.00 | 77 | 1022.0 |
| 20260508141519 | 50 | 247 | 1.0 | 5.0 | 0.00 | 0.00 | 0.00 | 77 | 1021.8 |
| 20260508141011 | 50 | 290 | 1.0 | 5.0 | 0.00 | 0.00 | 0.00 | 77 | 1021.7 |
| 20260508140506 | 50 | 248 | 1.0 | 5.0 | 0.00 | 0.00 | 0.00 | 77 | 1021.7 |
| 20260508140012 | 50 | 222 | 1.0 | 3.0 | 0.00 | 0.00 | 0.00 | 77 | 1021.5 |
| 20260508135509 | 50 | 241 | 1.0 | 3.0 | 0.00 | 0.00 | 0.00 | 76 | 1021.4 |
| 20260508135006 | 50 | 226 | 1.0 | 4.0 | 0.00 | 0.00 | 0.00 | 76 | 1021.4 |
| 20260508134520 | 50 | 288 | 1.0 | 4.0 | 0.00 | 0.00 | 0.00 | 75 | 1021.2 |
| 20260508134009 | 50 | 285 | 0.0 | 4.0 | 0.00 | 0.00 | 0.00 | 75 | 1021.2 |
| 20260508133511 | 50 | 270 | 2.0 | 4.0 | 0.00 | 0.00 | 0.00 | 75 | 1021.0 |
| 20260508133022 | 50 | 310 | 0.0 | 4.0 | 0.00 | 0.00 | 0.00 | 75 | 1020.9 |
| 20260508132503 | 50 | 288 | 1.0 | 4.0 | 0.00 | 0.00 | 0.00 | 75 | 1020.9 |
| 20260508132003 | 50 | 288 | 0.0 | 3.0 | 0.00 | 0.00 | 0.00 | 74 | 1020.8 |
| 20260508131507 | 50 | 295 | 1.0 | 2.0 | 0.00 | 0.00 | 0.00 | 75 | 1020.7 |
| 20260508131010 | 50 | 283 | 0.0 | 2.0 | 0.00 | 0.00 | 0.00 | 76 | 1020.6 |
| 20260508130506 | 50 | 276 | 0.0 | 0.0 | 0.00 | 0.00 | 0.00 | 77 | 1020.4 |
| 20260508130017 | 50 | 276 | 0.0 | 0.0 | 0.00 | 0.00 | 0.00 | 77 | 1020.2 |
| 20260508125506 | 51 | 237 | 0.0 | 0.0 | 0.00 | 0.00 | 0.00 | 77 | 1020.1 |
| 20260508125007 | 51 | 276 | 0.0 | 0.0 | 0.00 | 0.00 | 0.00 | 75 | 1020.1 |
| 20260508124516 | 51 | 198 | 0.0 | 0.0 | 0.00 | 0.00 | 0.00 | 75 | 1020.1 |
| 20260508124010 | 51 | 214 | 0.0 | 0.0 | 0.00 | 0.00 | 0.00 | 75 | 1020.1 |
| 20260508123507 | 51 | 214 | 0.0 | 0.0 | 0.00 | 0.00 | 0.00 | 74 | 1019.9 |
| 20260508123021 | 51 | 214 | 0.0 | 0.0 | 0.00 | 0.00 | 0.00 | 73 | 1019.9 |
| 20260508122507 | 51 | 207 | 0.0 | 0.0 | 0.00 | 0.00 | 0.00 | 74 | 1020.0 |
| 20260508122008 | 51 | 228 | 0.0 | 0.0 | 0.00 | 0.00 | 0.00 | 75 | 1019.9 |
| 20260508121524 | 51 | 228 | 0.0 | 0.0 | 0.00 | 0.00 | 0.00 | 76 | 1019.9 |
| 20260508121009 | 51 | 228 | 0.0 | 0.0 | 0.00 | 0.00 | 0.00 | 77 | 1019.9 |
| 20260508120510 | 50 | 157 | 0.0 | 0.0 | 0.00 | 0.00 | 0.00 | 79 | 1019.9 |
| 20260508120014 | 50 | 146 | 0.0 | 0.0 | 0.00 | 0.00 | 0.00 | 81 | 1019.9 |
| 20260508115504 | 50 | 146 | 0.0 | 0.0 | 0.00 | 0.00 | 0.00 | 82 | 1019.8 |
| 20260508115005 | 50 | 145 | 0.0 | 0.0 | 0.00 | 0.00 | 0.00 | 82 | 1019.7 |
| 20260508114526 | 50 | 145 | 0.0 | 0.0 | 0.00 | 0.00 | 0.00 | 82 | 1019.6 |
| 20260508114006 | 50 | 145 | 0.0 | 0.0 | 0.00 | 0.00 | 0.00 | 81 | 1019.6 |
| 20260508113505 | 50 | 145 | 0.0 | 0.0 | 0.00 | 0.00 | 0.00 | 81 | 1019.6 |
| 20260508113021 | 50 | 145 | 0.0 | 0.0 | 0.00 | 0.00 | 0.00 | 81 | 1019.4 |
| 20260508112507 | 50 | 146 | 0.0 | 0.0 | 0.00 | 0.00 | 0.00 | 81 | 1019.4 |
| 20260508112012 | 50 | 146 | 0.0 | 0.0 | 0.00 | 0.00 | 0.00 | 81 | 1019.2 |
| 20260508111524 | 50 | 146 | 0.0 | 0.0 | 0.00 | 0.00 | 0.00 | 82 | 1019.1 |
| 20260508111011 | 50 | 145 | 0.0 | 0.0 | 0.00 | 0.00 | 0.00 | 82 | 1019.1 |
| 20260508110510 | 50 | 138 | 0.0 | 0.0 | 0.00 | 0.00 | 0.00 | 82 | 1019.0 |
| 20260508110023 | 50 | 110 | 0.0 | 0.0 | 0.00 | 0.00 | 0.00 | 81 | 1018.9 |
| 20260508105511 | 49 | 110 | 0.0 | 0.0 | 0.00 | 0.00 | 0.00 | 80 | 1018.9 |
| 20260508105010 | 50 | 110 | 0.0 | 0.0 | 0.00 | 0.00 | 0.00 | 80 | 1018.9 |
| 20260508104526 | 50 | 110 | 0.0 | 0.0 | 0.00 | 0.00 | 0.00 | 80 | 1018.7 |
| 20260508104006 | 50 | 110 | 0.0 | 0.0 | 0.00 | 0.00 | 0.00 | 81 | 1018.8 |
| 20260508103507 | 49 | 110 | 0.0 | 0.0 | 0.00 | 0.00 | 0.00 | 81 | 1018.8 |
| 20260508103012 | 49 | 110 | 0.0 | 0.0 | 0.00 | 0.00 | 0.00 | 81 | 1018.7 |
| 20260508102512 | 49 | 110 | 0.0 | 0.0 | 0.00 | 0.00 | 0.00 | 82 | 1018.7 |
| 20260508102009 | 49 | 110 | 0.0 | 0.0 | 0.00 | 0.00 | 0.00 | 82 | 1018.7 |
| 20260508101516 | 49 | 110 | 0.0 | 0.0 | 0.00 | 0.00 | 0.00 | 81 | 1018.7 |
| 20260508101008 | 49 | 110 | 0.0 | 0.0 | 0.00 | 0.00 | 0.00 | 81 | 1018.6 |
| 20260508100506 | 49 | 110 | 0.0 | 0.0 | 0.00 | 0.00 | 0.00 | 81 | 1018.6 |
| 20260508100032 | 50 | 110 | 0.0 | 0.0 | 0.00 | 0.00 | 0.00 | 81 | 1018.4 |
| 20260508095515 | 50 | 110 | 0.0 | 0.0 | 0.00 | 0.00 | 0.00 | 82 | 1018.4 |
| 20260508095012 | 50 | 110 | 0.0 | 0.0 | 0.00 | 0.00 | 0.00 | 82 | 1018.3 |
| 20260508094524 | 49 | 110 | 0.0 | 0.0 | 0.00 | 0.00 | 0.00 | 83 | 1018.3 |
| 20260508094009 | 49 | 110 | 0.0 | 0.0 | 0.00 | 0.00 | 0.00 | 83 | 1018.3 |
| 20260508093511 | 49 | 110 | 0.0 | 0.0 | 0.00 | 0.00 | 0.00 | 83 | 1018.2 |
| 20260508093028 | 49 | 110 | 0.0 | 0.0 | 0.00 | 0.00 | 0.00 | 83 | 1018.3 |
| 20260508092512 | 49 | 110 | 0.0 | 0.0 | 0.00 | 0.00 | 0.00 | 81 | 1018.2 |
| 20260508092007 | 49 | 110 | 0.0 | 0.0 | 0.00 | 0.00 | 0.00 | 81 | 1018.2 |
| 20260508091513 | 50 | 110 | 0.0 | 0.0 | 0.00 | 0.00 | 0.00 | 81 | 1018.2 |
| 20260508091010 | 50 | 110 | 0.0 | 0.0 | 0.00 | 0.00 | 0.00 | 82 | 1018.2 |
| 20260508090512 | 50 | 110 | 0.0 | 0.0 | 0.00 | 0.00 | 0.00 | 82 | 1018.1 |
| 20260508090020 | 49 | 110 | 0.0 | 0.0 | 0.00 | 0.00 | 0.00 | 83 | 1018.1 |
| 20260508085508 | 49 | 110 | 0.0 | 0.0 | 0.00 | 0.00 | 0.00 | 81 | 1018.1 |
| 20260508085007 | 49 | 110 | 0.0 | 0.0 | 0.00 | 0.00 | 0.00 | 80 | 1018.0 |
| 20260508084522 | 50 | 110 | 0.0 | 0.0 | 0.00 | 0.00 | 0.00 | 81 | 1018.0 |
| 20260508084010 | 50 | 110 | 0.0 | 0.0 | 0.00 | 0.00 | 0.00 | 80 | 1017.9 |
| 20260508083513 | 50 | 110 | 0.0 | 0.0 | 0.00 | 0.00 | 0.00 | 80 | 1018.0 |
| 20260508083025 | 51 | 110 | 0.0 | 0.0 | 0.00 | 0.00 | 0.00 | 79 | 1017.9 |
| 20260508082517 | 51 | 110 | 0.0 | 0.0 | 0.00 | 0.00 | 0.00 | 80 | 1017.9 |
| 20260508082011 | 51 | 110 | 0.0 | 0.0 | 0.00 | 0.00 | 0.00 | 78 | 1017.9 |
| 20260508081528 | 51 | 110 | 0.0 | 0.0 | 0.00 | 0.00 | 0.00 | 77 | 1017.9 |
| 20260508081008 | 51 | 110 | 0.0 | 0.0 | 0.00 | 0.00 | 0.00 | 77 | 1018.0 |
| 20260508080508 | 51 | 110 | 0.0 | 0.0 | 0.00 | 0.00 | 0.00 | 76 | 1017.8 |
| 20260508080029 | 51 | 110 | 0.0 | 0.0 | 0.00 | 0.00 | 0.00 | 77 | 1017.8 |
| 20260508075509 | 51 | 110 | 0.0 | 0.0 | 0.00 | 0.00 | 0.00 | 78 | 1017.8 |
| 20260508075006 | 51 | 110 | 0.0 | 0.0 | 0.00 | 0.00 | 0.00 | 77 | 1017.8 |
| 20260508074520 | 51 | 110 | 0.0 | 0.0 | 0.00 | 0.00 | 0.00 | 77 | 1017.8 |
| 20260508074008 | 51 | 110 | 0.0 | 0.0 | 0.00 | 0.00 | 0.00 | 75 | 1017.9 |
| 20260508073511 | 52 | 110 | 0.0 | 0.0 | 0.00 | 0.00 | 0.00 | 75 | 1017.9 |
| 20260508073024 | 52 | 110 | 0.0 | 0.0 | 0.00 | 0.00 | 0.00 | 75 | 1017.8 |
| 20260508072512 | 53 | 110 | 0.0 | 0.0 | 0.00 | 0.00 | 0.00 | 75 | 1017.8 |
| 20260508072010 | 53 | 110 | 0.0 | 0.0 | 0.00 | 0.00 | 0.00 | 74 | 1017.7 |
| 20260508071526 | 53 | 110 | 0.0 | 0.0 | 0.00 | 0.00 | 0.00 | 74 | 1017.8 |
| 20260508071013 | 53 | 110 | 0.0 | 0.0 | 0.00 | 0.00 | 0.00 | 75 | 1017.8 |
| 20260508070511 | 53 | 110 | 0.0 | 0.0 | 0.00 | 0.00 | 0.00 | 74 | 1017.9 |
| 20260508070026 | 53 | 110 | 0.0 | 0.0 | 0.00 | 0.00 | 0.00 | 73 | 1017.9 |
| 20260508065510 | 53 | 110 | 0.0 | 0.0 | 0.00 | 0.00 | 0.00 | 73 | 1017.9 |
| 20260508065010 | 53 | 110 | 0.0 | 0.0 | 0.00 | 0.00 | 0.00 | 73 | 1017.8 |
| 20260508064548 | 53 | 110 | 0.0 | 0.0 | 0.00 | 0.00 | 0.00 | 73 | 1017.7 |
| 20260508064009 | 54 | 110 | 0.0 | 0.0 | 0.00 | 0.00 | 0.00 | 72 | 1017.7 |
| 20260508063509 | 54 | 110 | 0.0 | 0.0 | 0.00 | 0.00 | 0.00 | 72 | 1017.7 |
| 20260508063027 | 54 | 110 | 0.0 | 0.0 | 0.00 | 0.00 | 0.00 | 72 | 1017.7 |
| 20260508062512 | 54 | 110 | 0.0 | 0.0 | 0.00 | 0.00 | 0.00 | 71 | 1017.7 |
| 20260508062009 | 54 | 110 | 0.0 | 0.0 | 0.00 | 0.00 | 0.00 | 72 | 1017.6 |
| 20260508061523 | 54 | 110 | 0.0 | 0.0 | 0.00 | 0.00 | 0.00 | 72 | 1017.7 |
| 20260508061015 | 54 | 110 | 0.0 | 0.0 | 0.00 | 0.00 | 0.00 | 71 | 1017.6 |
| 20260508060518 | 55 | 110 | 0.0 | 0.0 | 0.00 | 0.00 | 0.00 | 71 | 1017.6 |
| 20260508060033 | 55 | 110 | 0.0 | 0.0 | 0.00 | 0.00 | 0.00 | 70 | 1017.6 |
| 20260508055506 | 55 | 110 | 0.0 | 0.0 | 0.00 | 0.00 | 0.00 | 70 | 1017.7 |
| 20260508055006 | 55 | 110 | 0.0 | 0.0 | 0.00 | 0.00 | 0.00 | 70 | 1017.6 |
| 20260508054519 | 55 | 110 | 0.0 | 0.0 | 0.00 | 0.00 | 0.00 | 68 | 1017.6 |
| 20260508054005 | 56 | 110 | 0.0 | 0.0 | 0.00 | 0.00 | 0.00 | 68 | 1017.6 |
| 20260508053506 | 56 | 110 | 0.0 | 0.0 | 0.00 | 0.00 | 0.00 | 67 | 1017.6 |
| 20260508053003 | 56 | 110 | 0.0 | 0.0 | 0.00 | 0.00 | 0.00 | 67 | 1017.6 |
| 20260508052504 | 56 | 110 | 0.0 | 0.0 | 0.00 | 0.00 | 0.00 | 67 | 1017.6 |
| 20260508052002 | 57 | 110 | 0.0 | 0.0 | 0.00 | 0.00 | 0.00 | 66 | 1017.6 |
| 20260508051510 | 57 | 110 | 0.0 | 0.0 | 0.00 | 0.00 | 0.00 | 66 | 1017.6 |
| 20260508051004 | 57 | 110 | 0.0 | 0.0 | 0.00 | 0.00 | 0.00 | 66 | 1017.6 |
| 20260508050504 | 57 | 110 | 0.0 | 0.0 | 0.00 | 0.00 | 0.00 | 66 | 1017.5 |
| 20260508050016 | 57 | 110 | 0.0 | 0.0 | 0.00 | 0.00 | 0.00 | 65 | 1017.5 |
| 20260508045506 | 58 | 110 | 0.0 | 0.0 | 0.00 | 0.00 | 0.00 | 65 | 1017.5 |
| 20260508045007 | 58 | 110 | 0.0 | 0.0 | 0.00 | 0.00 | 0.00 | 64 | 1017.5 |
| 20260508044511 | 58 | 110 | 0.0 | 0.0 | 0.00 | 0.00 | 0.00 | 63 | 1017.5 |
| 20260508044007 | 59 | 110 | 0.0 | 0.0 | 0.00 | 0.00 | 0.00 | 62 | 1017.5 |
| 20260508043508 | 60 | 110 | 0.0 | 1.0 | 0.00 | 0.00 | 0.00 | 61 | 1017.4 |
| 20260508043014 | 60 | 110 | 0.0 | 1.0 | 0.00 | 0.00 | 0.00 | 60 | 1017.4 |
| 20260508042507 | 60 | 57 | 0.0 | 0.0 | 0.00 | 0.00 | 0.00 | 59 | 1017.4 |
| 20260508042006 | 61 | 57 | 0.0 | 0.0 | 0.00 | 0.00 | 0.00 | 59 | 1017.5 |
| 20260508041523 | 61 | 57 | 0.0 | 0.0 | 0.00 | 0.00 | 0.00 | 58 | 1017.4 |
| 20260508041004 | 62 | 57 | 0.0 | 0.0 | 0.00 | 0.00 | 0.00 | 57 | 1017.4 |
| 20260508040504 | 62 | 57 | 0.0 | 0.0 | 0.00 | 0.00 | 0.00 | 56 | 1017.3 |
| 20260508040004 | 63 | 57 | 0.0 | 0.0 | 0.00 | 0.00 | 0.00 | 55 | 1017.3 |
| 20260508035503 | 64 | 57 | 0.0 | 0.0 | 0.00 | 0.00 | 0.00 | 54 | 1017.3 |
| 20260508035004 | 64 | 57 | 0.0 | 0.0 | 0.00 | 0.00 | 0.00 | 51 | 1017.2 |
| 20260508034520 | 65 | 57 | 0.0 | 0.0 | 0.00 | 0.00 | 0.00 | 49 | 1017.2 |
| 20260508034007 | 65 | 57 | 0.0 | 0.0 | 0.00 | 0.00 | 0.00 | 48 | 1017.1 |
| 20260508033507 | 66 | 57 | 0.0 | 0.0 | 0.00 | 0.00 | 0.00 | 47 | 1017.1 |
| 20260508033012 | 66 | 167 | 0.0 | 0.0 | 0.00 | 0.00 | 0.00 | 47 | 1016.9 |
| 20260508032506 | 66 | 167 | 0.0 | 1.0 | 0.00 | 0.00 | 0.00 | 47 | 1016.8 |
| 20260508032009 | 67 | 167 | 0.0 | 1.0 | 0.00 | 0.00 | 0.00 | 45 | 1016.8 |
| 20260508031515 | 67 | 152 | 0.0 | 0.0 | 0.00 | 0.00 | 0.00 | 43 | 1016.7 |
| 20260508031010 | 68 | 152 | 0.0 | 1.0 | 0.00 | 0.00 | 0.00 | 42 | 1016.7 |
| 20260508030515 | 68 | 155 | 0.0 | 1.0 | 0.00 | 0.00 | 0.00 | 41 | 1016.7 |
| 20260508030026 | 68 | 89 | 0.0 | 2.0 | 0.00 | 0.00 | 0.00 | 41 | 1016.7 |
| 20260508025510 | 69 | 72 | 1.0 | 2.0 | 0.00 | 0.00 | 0.00 | 41 | 1016.7 |
| 20260508025004 | 69 | 146 | 0.0 | 2.0 | 0.00 | 0.00 | 0.00 | 42 | 1016.6 |
| 20260508024510 | 69 | 129 | 0.0 | 3.0 | 0.00 | 0.00 | 0.00 | 41 | 1016.6 |
| 20260508024003 | 69 | 109 | 1.0 | 3.0 | 0.00 | 0.00 | 0.00 | 41 | 1016.7 |
| 20260508023504 | 69 | 92 | 0.0 | 3.0 | 0.00 | 0.00 | 0.00 | 41 | 1016.7 |
| 20260508023011 | 70 | 143 | 1.0 | 3.0 | 0.00 | 0.00 | 0.00 | 41 | 1016.7 |
| 20260508022506 | 70 | 112 | 0.0 | 3.0 | 0.00 | 0.00 | 0.00 | 41 | 1016.7 |
| 20260508022012 | 70 | 113 | 1.0 | 3.0 | 0.00 | 0.00 | 0.00 | 40 | 1016.7 |
| 20260508021512 | 71 | 80 | 0.0 | 3.0 | 0.00 | 0.00 | 0.00 | 40 | 1016.6 |
| 20260508021013 | 71 | 97 | 1.0 | 4.0 | 0.00 | 0.00 | 0.00 | 40 | 1016.7 |
| 20260508020509 | 71 | 94 | 2.0 | 4.0 | 0.00 | 0.00 | 0.00 | 40 | 1016.7 |
| 20260508020017 | 71 | 108 | 1.0 | 3.0 | 0.00 | 0.00 | 0.00 | 40 | 1016.8 |
| 20260508015507 | 72 | 42 | 1.0 | 5.0 | 0.00 | 0.00 | 0.00 | 38 | 1016.9 |
| 20260508015010 | 71 | 61 | 2.0 | 5.0 | 0.00 | 0.00 | 0.00 | 39 | 1017.0 |
| 20260508014522 | 71 | 58 | 1.0 | 5.0 | 0.00 | 0.00 | 0.00 | 39 | 1017.0 |
| 20260508014013 | 71 | 25 | 2.0 | 5.0 | 0.00 | 0.00 | 0.00 | 39 | 1017.0 |
| 20260508013507 | 71 | 80 | 3.0 | 6.0 | 0.00 | 0.00 | 0.00 | 39 | 1017.0 |
| 20260508013006 | 71 | 70 | 2.0 | 6.0 | 0.00 | 0.00 | 0.00 | 40 | 1017.0 |
| 20260508012510 | 72 | 62 | 3.0 | 6.0 | 0.00 | 0.00 | 0.00 | 39 | 1017.0 |
| 20260508012003 | 71 | 55 | 2.0 | 6.0 | 0.00 | 0.00 | 0.00 | 40 | 1017.0 |
| 20260508011512 | 71 | 49 | 3.0 | 6.0 | 0.00 | 0.00 | 0.00 | 40 | 1017.1 |
| 20260508011008 | 72 | 94 | 2.0 | 5.0 | 0.00 | 0.00 | 0.00 | 39 | 1017.0 |
| 20260508010508 | 72 | 16 | 2.0 | 6.0 | 0.00 | 0.00 | 0.00 | 39 | 1017.1 |
| 20260508010025 | 72 | 75 | 3.0 | 6.0 | 0.00 | 0.00 | 0.00 | 39 | 1017.2 |
| 20260508005507 | 72 | 53 | 2.0 | 5.0 | 0.00 | 0.00 | 0.00 | 39 | 1017.3 |
| 20260508005008 | 72 | 78 | 2.0 | 6.0 | 0.00 | 0.00 | 0.00 | 39 | 1017.2 |
| 20260508004530 | 72 | 72 | 4.0 | 9.0 | 0.00 | 0.00 | 0.00 | 38 | 1017.2 |
| 20260508004010 | 72 | 47 | 3.0 | 9.0 | 0.00 | 0.00 | 0.00 | 38 | 1017.3 |
| 20260508003507 | 73 | 46 | 3.0 | 6.0 | 0.00 | 0.00 | 0.00 | 38 | 1017.4 |
| 20260508003024 | 73 | 92 | 3.0 | 6.0 | 0.00 | 0.00 | 0.00 | 37 | 1017.4 |
| 20260508002510 | 73 | 98 | 1.0 | 6.0 | 0.00 | 0.00 | 0.00 | 37 | 1017.4 |
| 20260508002014 | 73 | 79 | 3.0 | 6.0 | 0.00 | 0.00 | 0.00 | 36 | 1017.5 |
| 20260508001530 | 73 | 97 | 1.0 | 6.0 | 0.00 | 0.00 | 0.00 | 36 | 1017.4 |
| 20260508001004 | 73 | 101 | 2.0 | 5.0 | 0.00 | 0.00 | 0.00 | 35 | 1017.6 |
| 20260508000508 | 74 | 16 | 1.0 | 4.0 | 0.00 | 0.00 | 0.00 | 34 | 1017.7 |
| 20260508000015 | 73 | 352 | 1.0 | 4.0 | 0.00 | 0.00 | 0.00 | 35 | 1017.7 |
| 20260507235508 | 73 | 283 | 2.0 | 5.0 | 0.00 | 0.00 | 0.00 | 33 | 1017.7 |
| 20260507235009 | 73 | 233 | 2.0 | 5.0 | 0.00 | 0.00 | 0.00 | 34 | 1017.8 |
| 20260507234527 | 73 | 321 | 2.0 | 8.0 | 0.00 | 0.00 | 0.00 | 33 | 1017.8 |
| 20260507234008 | 74 | 168 | 3.0 | 8.0 | 0.00 | 0.00 | 0.00 | 32 | 1017.7 |
| 20260507233508 | 74 | 51 | 2.0 | 4.0 | 0.00 | 0.00 | 0.00 | 36 | 1017.8 |
| 20260507233025 | 74 | 14 | 2.0 | 4.0 | 0.00 | 0.00 | 0.00 | 40 | 1017.8 |
| 20260507232507 | 73 | 68 | 1.0 | 4.0 | 0.00 | 0.00 | 0.00 | 41 | 1017.9 |
| 20260507232003 | 73 | 124 | 2.0 | 6.0 | 0.00 | 0.00 | 0.00 | 41 | 1018.0 |
| 20260507231506 | 72 | 285 | 2.0 | 6.0 | 0.00 | 0.00 | 0.00 | 41 | 1018.0 |
| 20260507231004 | 72 | 341 | 1.0 | 8.0 | 0.00 | 0.00 | 0.00 | 37 | 1018.1 |
| 20260507230505 | 71 | 302 | 2.0 | 8.0 | 0.00 | 0.00 | 0.00 | 36 | 1018.1 |
| 20260507230011 | 72 | 306 | 3.0 | 6.0 | 0.00 | 0.00 | 0.00 | 32 | 1018.2 |
| 20260507225509 | 72 | 293 | 2.0 | 5.0 | 0.00 | 0.00 | 0.00 | 36 | 1018.3 |
| 20260507225008 | 72 | 30 | 3.0 | 7.0 | 0.00 | 0.00 | 0.00 | 36 | 1018.4 |
| 20260507224521 | 72 | 27 | 3.0 | 7.0 | 0.00 | 0.00 | 0.00 | 36 | 1018.5 |
| 20260507224005 | 72 | 113 | 2.0 | 6.0 | 0.00 | 0.00 | 0.00 | 36 | 1018.5 |
| 20260507223515 | 72 | 79 | 2.0 | 6.0 | 0.00 | 0.00 | 0.00 | 37 | 1018.6 |
| 20260507223019 | 71 | 327 | 2.0 | 5.0 | 0.00 | 0.00 | 0.00 | 37 | 1018.7 |
| 20260507222516 | 71 | 91 | 1.0 | 5.0 | 0.00 | 0.00 | 0.00 | 38 | 1018.7 |
| 20260507222014 | 71 | 357 | 1.0 | 8.0 | 0.00 | 0.00 | 0.00 | 38 | 1018.8 |
| 20260507221523 | 70 | 39 | 4.0 | 9.0 | 0.00 | 0.00 | 0.00 | 39 | 1018.7 |
| 20260507221016 | 69 | 37 | 6.0 | 10.0 | 0.00 | 0.00 | 0.00 | 38 | 1018.8 |
| 20260507220519 | 70 | 44 | 4.0 | 10.0 | 0.00 | 0.00 | 0.00 | 41 | 1018.9 |
| 20260507220008 | 69 | 266 | 3.0 | 9.0 | 0.00 | 0.00 | 0.00 | 40 | 1019.0 |
| 20260507215505 | 70 | 329 | 1.0 | 9.0 | 0.00 | 0.00 | 0.00 | 41 | 1019.1 |
| 20260507215008 | 70 | 289 | 1.0 | 5.0 | 0.00 | 0.00 | 0.00 | 44 | 1019.2 |
| 20260507214519 | 69 | 139 | 3.0 | 6.0 | 0.00 | 0.00 | 0.00 | 44 | 1019.2 |
| 20260507214007 | 68 | 226 | 3.0 | 8.0 | 0.00 | 0.00 | 0.00 | 45 | 1019.3 |
| 20260507213509 | 68 | 84 | 2.0 | 9.0 | 0.00 | 0.00 | 0.00 | 45 | 1019.3 |
| 20260507213017 | 68 | 41 | 3.0 | 9.0 | 0.00 | 0.00 | 0.00 | 46 | 1019.2 |
| 20260507212511 | 68 | 310 | 3.0 | 7.0 | 0.00 | 0.00 | 0.00 | 46 | 1019.3 |
| 20260507212013 | 68 | 302 | 3.0 | 8.0 | 0.00 | 0.00 | 0.00 | 46 | 1019.4 |
| 20260507211518 | 67 | 275 | 3.0 | 9.0 | 0.00 | 0.00 | 0.00 | 47 | 1019.3 |
| 20260507211012 | 67 | 57 | 5.0 | 9.0 | 0.00 | 0.00 | 0.00 | 47 | 1019.4 |
| 20260507210508 | 68 | 290 | 3.0 | 6.0 | 0.00 | 0.00 | 0.00 | 46 | 1019.5 |
| 20260507210027 | 68 | 276 | 3.0 | 5.0 | 0.00 | 0.00 | 0.00 | 48 | 1019.6 |
| 20260507205508 | 67 | 298 | 3.0 | 6.0 | 0.00 | 0.00 | 0.00 | 49 | 1019.6 |
| 20260507205009 | 67 | 13 | 4.0 | 6.0 | 0.00 | 0.00 | 0.00 | 49 | 1019.7 |
| 20260507204526 | 67 | 321 | 2.0 | 6.0 | 0.00 | 0.00 | 0.00 | 49 | 1019.7 |
| 20260507204009 | 66 | 105 | 2.0 | 8.0 | 0.00 | 0.00 | 0.00 | 49 | 1019.8 |
| 20260507203510 | 66 | 19 | 3.0 | 8.0 | 0.00 | 0.00 | 0.00 | 50 | 1019.9 |
| 20260507203014 | 66 | 293 | 4.0 | 8.0 | 0.00 | 0.00 | 0.00 | 49 | 1020.0 |
| 20260507202506 | 65 | 101 | 2.0 | 7.0 | 0.00 | 0.00 | 0.00 | 49 | 1020.1 |
| 20260507202011 | 66 | 278 | 2.0 | 6.0 | 0.00 | 0.00 | 0.00 | 51 | 1020.1 |
| 20260507201518 | 65 | 324 | 3.0 | 8.0 | 0.00 | 0.00 | 0.00 | 52 | 1020.1 |
| 20260507201007 | 65 | 84 | 2.0 | 8.0 | 0.00 | 0.00 | 0.00 | 53 | 1020.2 |
| 20260507200509 | 64 | 128 | 1.0 | 6.0 | 0.00 | 0.00 | 0.00 | 53 | 1020.2 |
| 20260507200021 | 64 | 66 | 2.0 | 6.0 | 0.00 | 0.00 | 0.00 | 52 | 1020.3 |
| 20260507195507 | 64 | 335 | 1.0 | 6.0 | 0.00 | 0.00 | 0.00 | 54 | 1020.4 |
| 20260507195008 | 64 | 5 | 2.0 | 8.0 | 0.00 | 0.00 | 0.00 | 53 | 1020.4 |
| 20260507194526 | 65 | 56 | 5.0 | 8.0 | 0.00 | 0.00 | 0.00 | 53 | 1020.5 |
| 20260507194007 | 64 | 214 | 1.0 | 3.0 | 0.00 | 0.00 | 0.00 | 53 | 1020.5 |
| 20260507193507 | 64 | 302 | 0.0 | 4.0 | 0.00 | 0.00 | 0.00 | 52 | 1020.6 |
| 20260507193028 | 63 | 78 | 1.0 | 6.0 | 0.00 | 0.00 | 0.00 | 55 | 1020.7 |
| 20260507192510 | 63 | 322 | 1.0 | 6.0 | 0.00 | 0.00 | 0.00 | 56 | 1020.8 |
| 20260507192005 | 62 | 318 | 2.0 | 7.0 | 0.00 | 0.00 | 0.00 | 56 | 1020.7 |
| 20260507191514 | 62 | 354 | 4.0 | 7.0 | 0.00 | 0.00 | 0.00 | 55 | 1020.8 |
| 20260507191008 | 62 | 338 | 0.0 | 4.0 | 0.00 | 0.00 | 0.00 | 56 | 1020.7 |
| 20260507190509 | 62 | 296 | 2.0 | 5.0 | 0.00 | 0.00 | 0.00 | 56 | 1020.8 |
| 20260507190020 | 62 | 182 | 2.0 | 6.0 | 0.00 | 0.00 | 0.00 | 56 | 1020.9 |
| 20260507185509 | 61 | 136 | 1.0 | 6.0 | 0.00 | 0.00 | 0.00 | 57 | 1021.1 |
| 20260507185011 | 62 | 354 | 3.0 | 7.0 | 0.00 | 0.00 | 0.00 | 57 | 1021.0 |
| 20260507184522 | 61 | 332 | 2.0 | 7.0 | 0.00 | 0.00 | 0.00 | 58 | 1021.1 |
| 20260507184007 | 62 | 66 | 2.0 | 4.0 | 0.00 | 0.00 | 0.00 | 57 | 1021.1 |
| 20260507183513 | 61 | 207 | 1.0 | 7.0 | 0.00 | 0.00 | 0.00 | 58 | 1021.1 |
| 20260507183024 | 60 | 271 | 1.0 | 7.0 | 0.00 | 0.00 | 0.00 | 59 | 1021.2 |
| 20260507182510 | 60 | 141 | 2.0 | 8.0 | 0.00 | 0.00 | 0.00 | 59 | 1021.3 |
| 20260507182011 | 60 | 310 | 3.0 | 8.0 | 0.00 | 0.00 | 0.00 | 60 | 1021.4 |
| 20260507181528 | 60 | 302 | 4.0 | 6.0 | 0.00 | 0.00 | 0.00 | 59 | 1021.4 |
| 20260507181014 | 59 | 309 | 1.0 | 5.0 | 0.00 | 0.00 | 0.00 | 60 | 1021.6 |
| 20260507180510 | 59 | 240 | 2.0 | 7.0 | 0.00 | 0.00 | 0.00 | 60 | 1021.6 |
| 20260507180016 | 59 | 20 | 4.0 | 7.0 | 0.00 | 0.00 | 0.00 | 60 | 1021.6 |
| 20260507175511 | 59 | 321 | 1.0 | 5.0 | 0.00 | 0.00 | 0.00 | 60 | 1021.6 |
| 20260507175009 | 58 | 286 | 2.0 | 8.0 | 0.00 | 0.00 | 0.00 | 61 | 1021.7 |
| 20260507174540 | 59 | 34 | 3.0 | 8.0 | 0.00 | 0.00 | 0.00 | 61 | 1021.7 |
| 20260507174017 | 59 | 295 | 1.0 | 5.0 | 0.00 | 0.00 | 0.00 | 60 | 1021.7 |
| 20260507173514 | 59 | 33 | 2.0 | 6.0 | 0.00 | 0.00 | 0.00 | 62 | 1021.8 |
| 20260507173027 | 58 | 72 | 2.0 | 6.0 | 0.00 | 0.00 | 0.00 | 63 | 1021.8 |
| 20260507172510 | 58 | 46 | 2.0 | 6.0 | 0.00 | 0.00 | 0.00 | 62 | 1021.8 |
| 20260507172019 | 58 | 31 | 1.0 | 5.0 | 0.00 | 0.00 | 0.00 | 64 | 1021.9 |
| 20260507171539 | 57 | 98 | 2.0 | 5.0 | 0.00 | 0.00 | 0.00 | 63 | 1021.9 |
| 20260507171011 | 57 | 107 | 3.0 | 4.0 | 0.00 | 0.00 | 0.00 | 63 | 1021.9 |
| 20260507170515 | 56 | 194 | 2.0 | 6.0 | 0.00 | 0.00 | 0.00 | 66 | 1022.0 |
| 20260507170028 | 55 | 56 | 3.0 | 6.0 | 0.00 | 0.00 | 0.00 | 65 | 1022.0 |
| 20260507165518 | 55 | 63 | 3.0 | 7.0 | 0.00 | 0.00 | 0.00 | 66 | 1022.0 |
| 20260507165015 | 55 | 11 | 4.0 | 7.0 | 0.00 | 0.00 | 0.00 | 65 | 1022.1 |
| 20260507164528 | 55 | 118 | 3.0 | 6.0 | 0.00 | 0.00 | 0.00 | 66 | 1022.1 |
| 20260507164011 | 55 | 32 | 2.0 | 6.0 | 0.00 | 0.00 | 0.00 | 66 | 1022.1 |
| 20260507163508 | 55 | 106 | 2.0 | 7.0 | 0.00 | 0.00 | 0.00 | 67 | 1022.1 |
| 20260507163023 | 55 | 60 | 3.0 | 7.0 | 0.00 | 0.00 | 0.00 | 66 | 1022.1 |
| 20260507162508 | 54 | 64 | 1.0 | 6.0 | 0.00 | 0.00 | 0.00 | 67 | 1022.1 |